Weather History for North Platte, NE

Change the Weather History Date:

Thursday, May 16, 2013

  Actual Average Record
Temperature  
Mean Temperature 66 °F 58 °F  
Max Temperature 81 °F 72 °F 93 °F (1996)
Min Temperature 51 °F 44 °F 30 °F (1923)
Degree Days  
Heating Degree Days 0 8  
Month to date heating degree days 184 159  
Since 1 July heating degree days 6670 6549  
Cooling Degree Days 1 1  
Month to date cooling degree days 18 6  
Year to date cooling degree days 19 9  
Growing Degree Days 16 (Base 50)    
Moisture  
Dew Point 51 °F    
Average Humidity 68    
Maximum Humidity 93    
Minimum Humidity 42    
Precipitation  
Precipitation 0.04 in 0.11 in 2.94 in (1902)
Month to date precipitation 1.43 1.55  
Year to date precipitation 4.47 5.71  
Snow  
Snow 0.00 in 0.00 in T in (1969)
Month to date snowfall 0.9 0.0  
Since 1 July snowfall 30.2 28.5  
Snow Depth 0.00 in    
Sea Level Pressure  
Sea Level Pressure 29.78 in    
Wind  
Wind Speed 7 mph (ESE)    
Max Wind Speed 36 mph    
Max Gust Speed 46 mph    
Visibility 10 miles    
Events Rain , Thunderstorm    
T = Trace of Precipitation, MM = Missing Value Source: NWS Daily Summary

Daily Weather History Graph

Daily Weather History Graph

Search for Another Location

Airport:

Trip Planner

Search our weather history database for the weather conditions in past years. The results will help you decide how hot, cold, wet, or windy it might be!

Date:

Astronomy

May. 16, 2013 Rise Set
Actual Time 6:23 AM CDT 8:55 PM CDT
Civil Twilight 5:51 AM CDT 9:26 PM CDT
Nautical Twilight 5:12 AM CDT 10:06 PM CDT
Astronomical Twilight 4:28 AM CDT 10:50 PM CDT
Moon 11:59 AM CDT 1:16 AM CDT
Length of Visible Light 15h 35m
Length of Day
14h 32m
Waxing Crescent, 36% of the Moon is Illuminated
May 16
Waxing Crescent
May 17
First Quarter
May 24
Full
May 31
Last Quarter
Jun 8
New

Hourly Weather History & Observations

Time (CDT) Temp. Heat Index Dew Point Humidity Pressure Visibility Wind Dir Wind Speed Gust Speed Precip Events Conditions
12:53 AM 54.0 °F - 42.1 °F 64% 29.83 in 10.0 mi East 5.8 mph - N/A   Clear
1:53 AM 57.9 °F - 39.9 °F 51% 29.81 in 10.0 mi ENE 4.6 mph - N/A   Clear
2:53 AM 55.0 °F - 39.9 °F 57% 29.80 in 10.0 mi ENE 6.9 mph - N/A   Clear
3:53 AM 53.1 °F - 42.1 °F 66% 29.78 in 10.0 mi East 4.6 mph - N/A   Clear
4:53 AM 53.1 °F - 44.1 °F 71% 29.78 in 10.0 mi ESE 6.9 mph - N/A   Clear
5:53 AM 54.0 °F - 46.0 °F 75% 29.77 in 10.0 mi East 6.9 mph - N/A   Clear
6:53 AM 55.0 °F - 48.0 °F 77% 29.76 in 10.0 mi East 6.9 mph - N/A   Clear
7:53 AM 57.0 °F - 51.1 °F 81% 29.77 in 10.0 mi ESE 8.1 mph - N/A   Partly Cloudy
8:53 AM 57.9 °F - 50.0 °F 75% 29.81 in 10.0 mi Calm Calm - 0.00 in   Mostly Cloudy
9:53 AM 57.9 °F - 53.1 °F 84% 29.80 in 7.0 mi ENE 9.2 mph - 0.01 in Rain Light Rain
10:53 AM 60.1 °F - 55.9 °F 86% 29.85 in 9.0 mi Calm Calm - 0.02 in Rain Light Rain
11:53 AM 62.1 °F - 55.9 °F 80% 29.84 in 10.0 mi East 4.6 mph - 0.01 in   Overcast
12:53 PM 66.9 °F - 59.0 °F 76% 29.80 in 10.0 mi ESE 11.5 mph - N/A   Mostly Cloudy
1:53 PM 75.9 °F - 59.0 °F 56% 29.74 in 10.0 mi SE 11.5 mph - N/A   Clear
2:53 PM 81.0 °F 80.8 °F 55.9 °F 42% 29.72 in 10.0 mi South 8.1 mph 18.4 mph N/A   Mostly Cloudy
3:28 PM 77.0 °F - 53.6 °F 44% 29.79 in 10.0 mi South 13.8 mph - N/A Thunderstorm Partly Cloudy
3:53 PM 73.0 °F - 46.9 °F 39% 29.72 in 10.0 mi SW 15.0 mph - 0.00 in Rain , Thunderstorm Light Rain
4:08 PM 64.4 °F - 53.6 °F 68% 29.77 in 10.0 mi South 19.6 mph 35.7 mph 0.00 in Rain , Thunderstorm Light Thunderstorms and Rain
4:53 PM 60.8 °F - 51.8 °F 72% 29.76 in 10.0 mi SE 23.0 mph 40.3 mph N/A Rain Light Rain
5:53 PM 66.9 °F - 54.0 °F 63% 29.75 in 10.0 mi SE 12.7 mph - 0.00 in   Clear
6:53 PM 69.1 °F - 54.0 °F 58% 29.73 in 10.0 mi ESE 12.7 mph - N/A   Clear
7:53 PM 64.0 °F - 54.0 °F 70% 29.74 in 10.0 mi ESE 4.6 mph - N/A   Clear
8:53 PM 59.0 °F - 54.0 °F 83% 29.75 in 10.0 mi ESE 4.6 mph - N/A   Clear
9:53 PM 57.0 °F - 53.1 °F 87% 29.77 in 10.0 mi ESE 5.8 mph - N/A   Clear
10:53 PM 55.0 °F - 53.1 °F 93% 29.81 in 10.0 mi ENE 3.5 mph - N/A   Clear
11:53 PM 55.0 °F - 53.1 °F 93% 29.81 in 10.0 mi ESE 6.9 mph - N/A   Clear